status,avgMeasuredTime,avgSpeed,extID,medianMeasuredTime,TIMESTAMP,vehicleCount,_id,REPORT_ID
OK,41,48,834,41,2014-08-01T07:55:00,17,20746558,194878
OK,39,51,834,39,2014-08-01T08:00:00,21,20746889,194878
OK,34,58,834,34,2014-08-01T08:05:00,19,20747338,194878
OK,29,69,834,29,2014-08-01T08:10:00,14,20747711,194878
OK,30,66,834,30,2014-08-01T08:15:00,12,20748160,194878
OK,35,57,834,35,2014-08-01T08:20:00,9,20748609,194878
OK,43,46,834,43,2014-08-01T08:25:00,18,20749058,194878
OK,46,43,834,46,2014-08-01T08:30:00,17,20749507,194878
OK,33,60,834,33,2014-08-01T08:35:00,10,20749956,194878
OK,42,47,834,42,2014-08-01T08:40:00,15,20750405,194878
OK,37,54,834,37,2014-08-01T08:45:00,13,20750854,194878
OK,37,54,834,37,2014-08-01T08:50:00,15,20751303,194878
OK,43,46,834,43,2014-08-01T08:55:00,17,20751752,194878
OK,35,57,834,35,2014-08-01T09:00:00,14,20752201,194878
OK,33,60,834,33,2014-08-01T09:05:00,16,20752650,194878
OK,45,44,834,45,2014-08-01T09:10:00,18,20753099,194878
OK,50,40,834,50,2014-08-01T09:15:00,18,20753548,194878
OK,33,60,834,33,2014-08-01T09:20:00,15,20753997,194878
OK,28,71,834,28,2014-08-01T09:25:00,18,20754446,194878
OK,43,46,834,43,2014-08-01T09:30:00,21,20754895,194878
OK,43,46,834,43,2014-08-01T09:35:00,27,20755344,194878
OK,37,54,834,37,2014-08-01T09:40:00,16,20755793,194878
OK,31,64,834,31,2014-08-01T09:45:00,18,20756242,194878
OK,35,57,834,35,2014-08-01T09:50:00,28,20756691,194878
OK,36,55,834,36,2014-08-01T09:55:00,27,20757140,194878
OK,37,54,834,37,2014-08-01T10:00:00,19,20757589,194878
OK,45,44,834,45,2014-08-01T10:05:00,20,20758038,194878
OK,46,43,834,46,2014-08-01T10:10:00,16,20758487,194878
OK,48,41,834,48,2014-08-01T10:15:00,25,20758936,194878
OK,48,41,834,48,2014-08-01T10:20:00,26,20759385,194878
OK,46,43,834,46,2014-08-01T10:25:00,16,20759834,194878
OK,50,40,834,50,2014-08-01T10:30:00,22,20760283,194878
OK,48,41,834,48,2014-08-01T10:35:00,25,20760732,194878
OK,36,55,834,36,2014-08-01T10:40:00,20,20761181,194878
OK,38,52,834,38,2014-08-01T10:45:00,26,20761630,194878
OK,37,54,834,37,2014-08-01T10:50:00,28,20762079,194878
OK,40,50,834,40,2014-08-01T10:55:00,27,20762528,194878
OK,39,51,834,39,2014-08-01T11:00:00,23,20762977,194878
OK,36,55,834,36,2014-08-01T11:05:00,19,20763426,194878
OK,35,57,834,35,2014-08-01T11:10:00,14,20763875,194878
OK,34,58,834,34,2014-08-01T11:15:00,14,20764323,194878
OK,33,60,834,33,2014-08-01T11:20:00,20,20764772,194878
OK,35,57,834,35,2014-08-01T11:25:00,17,20765221,194878
OK,35,57,834,35,2014-08-01T11:30:00,15,20765670,194878
OK,39,51,834,39,2014-08-01T11:35:00,16,20766119,194878
OK,36,55,834,36,2014-08-01T11:40:00,23,20766568,194878
OK,36,55,834,36,2014-08-01T11:45:00,29,20767017,194878
OK,39,51,834,39,2014-08-01T11:50:00,19,20767466,194878
OK,38,52,834,38,2014-08-01T11:55:00,16,20767915,194878
OK,34,58,834,34,2014-08-01T12:00:00,18,20768364,194878
OK,33,60,834,33,2014-08-01T12:05:00,21,20768813,194878
OK,37,54,834,37,2014-08-01T12:10:00,21,20769262,194878
OK,45,44,834,45,2014-08-01T12:15:00,15,20769711,194878
OK,40,50,834,40,2014-08-01T12:20:00,22,20770160,194878
OK,41,48,834,41,2014-08-01T12:25:00,19,20770609,194878
OK,41,48,834,41,2014-08-01T12:30:00,19,20771058,194878
OK,39,51,834,39,2014-08-01T12:35:00,16,20771507,194878
OK,33,60,834,33,2014-08-01T12:40:00,10,20771956,194878
OK,41,48,834,41,2014-08-01T12:45:00,16,20772405,194878
OK,42,47,834,42,2014-08-01T12:50:00,23,20772854,194878
OK,45,44,834,45,2014-08-01T12:55:00,25,20773303,194878
OK,48,41,834,48,2014-08-01T13:00:00,20,20773752,194878
OK,43,46,834,43,2014-08-01T13:05:00,20,20774201,194878
OK,40,50,834,40,2014-08-01T13:10:00,25,20774650,194878
OK,42,47,834,42,2014-08-01T13:15:00,31,20775099,194878
OK,43,46,834,43,2014-08-01T13:20:00,25,20775548,194878
OK,38,52,834,38,2014-08-01T13:25:00,19,20775997,194878
OK,41,48,834,41,2014-08-01T13:30:00,29,20776446,194878
OK,44,45,834,44,2014-08-01T13:35:00,28,20776895,194878
OK,52,38,834,52,2014-08-01T13:40:00,18,20777344,194878
OK,38,52,834,38,2014-08-01T13:45:00,19,20777793,194878
OK,32,62,834,32,2014-08-01T13:50:00,16,20778242,194878
OK,37,54,834,37,2014-08-01T13:55:00,15,20778691,194878
OK,40,50,834,40,2014-08-01T14:00:00,14,20779140,194878
OK,38,52,834,38,2014-08-01T14:05:00,19,20779589,194878
OK,40,50,834,40,2014-08-01T14:10:00,17,20780038,194878
OK,39,51,834,39,2014-08-01T14:15:00,22,20780487,194878
OK,35,57,834,35,2014-08-01T14:20:00,26,20780936,194878
OK,38,52,834,38,2014-08-01T14:25:00,22,20781385,194878
OK,45,44,834,45,2014-08-01T14:30:00,17,20781834,194878
OK,35,57,834,35,2014-08-01T14:35:00,12,20782283,194878
OK,36,55,834,36,2014-08-01T14:40:00,16,20782732,194878
OK,38,52,834,38,2014-08-01T14:45:00,18,20783181,194878
OK,47,42,834,47,2014-08-01T14:50:00,14,20783630,194878
OK,33,60,834,33,2014-08-01T14:55:00,16,20784079,194878
OK,42,47,834,42,2014-08-01T15:00:00,21,20784528,194878
OK,45,44,834,45,2014-08-01T15:05:00,14,20784977,194878
OK,34,58,834,34,2014-08-01T15:10:00,8,20785426,194878
OK,35,57,834,35,2014-08-01T15:15:00,13,20785875,194878
OK,36,55,834,36,2014-08-01T15:20:00,18,20786324,194878
OK,40,50,834,40,2014-08-01T15:25:00,20,20786773,194878
OK,37,54,834,37,2014-08-01T15:30:00,20,20787222,194878
OK,32,62,834,32,2014-08-01T15:35:00,21,20787671,194878
OK,34,58,834,34,2014-08-01T15:40:00,14,20788120,194878
OK,34,58,834,34,2014-08-01T15:45:00,14,20788569,194878
OK,40,50,834,40,2014-08-01T15:50:00,12,20789018,194878
OK,47,42,834,47,2014-08-01T15:55:00,12,20789467,194878
OK,48,41,834,48,2014-08-01T16:00:00,10,20789916,194878
OK,45,44,834,45,2014-08-01T16:05:00,8,20790365,194878
OK,35,57,834,35,2014-08-01T16:10:00,12,20790814,194878
OK,32,62,834,32,2014-08-01T16:15:00,17,20791263,194878
OK,31,64,834,31,2014-08-01T16:20:00,13,20791712,194878
OK,30,66,834,30,2014-08-01T16:25:00,11,20792161,194878
OK,29,69,834,29,2014-08-01T16:30:00,9,20792610,194878
OK,29,69,834,29,2014-08-01T16:35:00,7,20793059,194878
OK,29,69,834,29,2014-08-01T16:40:00,3,20793508,194878
OK,36,55,834,36,2014-08-01T16:45:00,1,20793957,194878
OK,36,55,834,36,2014-08-01T16:50:00,2,20794406,194878
OK,29,69,834,29,2014-08-01T16:55:00,4,20794855,194878
OK,27,74,834,27,2014-08-01T17:00:00,6,20795304,194878
OK,27,74,834,27,2014-08-01T17:05:00,4,20795753,194878
OK,28,71,834,28,2014-08-01T17:10:00,8,20796202,194878
OK,30,66,834,30,2014-08-01T17:15:00,7,20796651,194878
OK,35,57,834,35,2014-08-01T17:20:00,12,20797100,194878
OK,34,58,834,34,2014-08-01T17:25:00,13,20797549,194878
OK,26,77,834,26,2014-08-01T17:30:00,5,20797998,194878
OK,35,57,834,35,2014-08-01T17:35:00,5,20798447,194878
OK,28,71,834,28,2014-08-01T17:40:00,10,20798896,194878
OK,27,74,834,27,2014-08-01T17:45:00,13,20799345,194878
OK,29,69,834,29,2014-08-01T17:50:00,12,20799794,194878
OK,32,62,834,32,2014-08-01T17:55:00,9,20800243,194878
OK,34,58,834,34,2014-08-01T18:00:00,6,20800692,194878
OK,30,66,834,30,2014-08-01T18:05:00,5,20801141,194878
OK,32,62,834,32,2014-08-01T18:10:00,3,20801590,194878
OK,29,69,834,29,2014-08-01T18:15:00,2,20802039,194878
OK,28,71,834,28,2014-08-01T18:20:00,3,20802488,194878
OK,28,71,834,28,2014-08-01T18:25:00,1,20802937,194878
OK,35,57,834,35,2014-08-01T18:30:00,1,20803386,194878
OK,25,80,834,25,2014-08-01T18:35:00,5,20803835,194878
OK,25,80,834,25,2014-08-01T18:40:00,5,20804284,194878
OK,39,51,834,39,2014-08-01T18:45:00,5,20804733,194878
OK,32,62,834,32,2014-08-01T18:50:00,7,20805182,194878
OK,31,64,834,31,2014-08-01T18:55:00,6,20805631,194878
OK,36,55,834,36,2014-08-01T19:00:00,3,20806080,194878
OK,31,64,834,31,2014-08-01T19:05:00,5,20806529,194878
OK,30,66,834,30,2014-08-01T19:10:00,6,20806978,194878
OK,28,71,834,28,2014-08-01T19:15:00,2,20807427,194878
OK,38,52,834,38,2014-08-01T19:20:00,2,20807876,194878
OK,31,64,834,31,2014-08-01T19:25:00,4,20808325,194878
OK,31,64,834,31,2014-08-01T19:30:00,8,20808774,194878
OK,31,64,834,31,2014-08-01T19:35:00,7,20809223,194878
OK,31,64,834,31,2014-08-01T19:40:00,4,20809672,194878
OK,35,57,834,35,2014-08-01T19:45:00,2,20810121,194878
OK,30,66,834,30,2014-08-01T19:50:00,4,20810570,194878
OK,31,64,834,31,2014-08-01T19:55:00,9,20811019,194878
OK,24,83,834,24,2014-08-01T22:00:00,0,20816748,194878
OK,24,83,834,24,2014-08-01T22:05:00,0,20817197,194878
OK,26,77,834,26,2014-08-02T00:00:00,3,20823187,194878
OK,26,77,834,26,2014-08-02T00:05:00,2,20823636,194878
OK,26,77,834,26,2014-08-02T00:10:00,0,20824085,194878
OK,28,71,834,28,2014-08-02T00:15:00,0,20824534,194878
OK,32,62,834,32,2014-08-02T00:20:00,1,20824983,194878
OK,32,62,834,32,2014-08-02T00:25:00,0,20825432,194878
OK,26,77,834,26,2014-08-02T00:30:00,1,20825881,194878
OK,26,77,834,26,2014-08-02T00:35:00,2,20826330,194878
OK,26,77,834,26,2014-08-02T00:40:00,2,20826779,194878
OK,26,77,834,26,2014-08-02T00:45:00,0,20827228,194878
OK,29,69,834,29,2014-08-02T00:50:00,1,20827677,194878
OK,29,69,834,29,2014-08-02T00:55:00,1,20828126,194878
OK,29,69,834,29,2014-08-02T01:00:00,0,20828575,194878
OK,29,69,834,29,2014-08-02T01:05:00,0,20829024,194878
OK,29,69,834,29,2014-08-02T01:10:00,0,20829473,194878
OK,23,87,834,23,2014-08-02T01:15:00,3,20829922,194878
OK,26,77,834,26,2014-08-02T01:20:00,5,20830371,194878
OK,28,71,834,28,2014-08-02T01:25:00,1,20830820,194878
OK,39,51,834,39,2014-08-02T01:30:00,1,20831269,194878
OK,39,51,834,39,2014-08-02T01:35:00,0,20831718,194878
OK,28,71,834,28,2014-08-02T01:40:00,1,20832167,194878
OK,28,71,834,28,2014-08-02T01:45:00,1,20832616,194878
OK,28,71,834,28,2014-08-02T01:50:00,0,20833065,194878
OK,28,71,834,28,2014-08-02T01:55:00,0,20833514,194878
OK,26,77,834,26,2014-08-02T02:00:00,2,20833963,194878
OK,29,69,834,29,2014-08-02T02:05:00,1,20834412,194878
OK,29,69,834,29,2014-08-02T02:10:00,0,20834861,194878
OK,29,69,834,29,2014-08-02T02:15:00,0,20835310,194878
OK,29,69,834,29,2014-08-02T02:20:00,0,20835759,194878
OK,32,62,834,32,2014-08-02T02:25:00,0,20836208,194878
OK,32,62,834,32,2014-08-02T02:30:00,0,20836657,194878
OK,27,74,834,27,2014-08-02T02:35:00,0,20837106,194878
OK,27,74,834,27,2014-08-02T02:40:00,0,20837555,194878
OK,27,74,834,27,2014-08-02T02:45:00,0,20838004,194878
OK,33,60,834,33,2014-08-02T02:50:00,1,20838453,194878
OK,20,100,834,20,2014-08-02T02:55:00,1,20838902,194878
OK,20,100,834,20,2014-08-02T03:00:00,3,20839351,194878
OK,28,71,834,28,2014-08-02T03:05:00,2,20839800,194878
OK,29,69,834,29,2014-08-02T03:10:00,2,20840249,194878
OK,29,69,834,29,2014-08-02T03:15:00,0,20840698,194878
OK,29,69,834,29,2014-08-02T03:20:00,0,20841147,194878
OK,30,66,834,30,2014-08-02T03:25:00,1,20841596,194878
OK,30,66,834,30,2014-08-02T03:30:00,1,20842045,194878
OK,27,74,834,27,2014-08-02T03:35:00,1,20842494,194878
OK,25,80,834,25,2014-08-02T03:40:00,2,20842943,194878
OK,28,71,834,28,2014-08-02T03:45:00,1,20843392,194878
OK,28,71,834,28,2014-08-02T03:50:00,0,20843841,194878
OK,24,83,834,24,2014-08-02T03:55:00,4,20844290,194878
OK,28,71,834,28,2014-08-02T04:50:00,3,20848001,194878
OK,28,71,834,28,2014-08-02T06:00:00,2,20851744,194878
OK,44,45,834,44,2014-08-02T06:05:00,2,20852193,194878
OK,40,50,834,40,2014-08-02T06:10:00,2,20852642,194878
OK,26,77,834,26,2014-08-02T06:15:00,1,20853091,194878
OK,26,77,834,26,2014-08-02T06:20:00,2,20853540,194878
OK,29,69,834,29,2014-08-02T06:25:00,2,20853989,194878
OK,29,69,834,29,2014-08-02T06:30:00,2,20854438,194878
OK,46,43,834,46,2014-08-02T06:35:00,1,20854887,194878
OK,32,62,834,32,2014-08-02T06:40:00,1,20855336,194878
OK,26,77,834,26,2014-08-02T06:45:00,4,20855785,194878
OK,28,71,834,28,2014-08-02T06:50:00,8,20856234,194878
OK,28,71,834,28,2014-08-02T06:55:00,7,20856683,194878
OK,25,80,834,25,2014-08-02T07:00:00,2,20857132,194878
OK,28,71,834,28,2014-08-02T07:05:00,0,20857581,194878
OK,27,74,834,27,2014-08-02T07:10:00,2,20858030,194878
OK,35,57,834,35,2014-08-02T07:15:00,8,20858479,194878
OK,37,54,834,37,2014-08-02T07:20:00,11,20858928,194878
OK,35,57,834,35,2014-08-02T07:25:00,7,20859377,194878
OK,34,58,834,34,2014-08-02T07:30:00,4,20859826,194878
OK,31,64,834,31,2014-08-02T07:35:00,8,20860275,194878
OK,31,64,834,31,2014-08-02T07:40:00,11,20860724,194878
OK,30,66,834,30,2014-08-02T07:45:00,8,20861173,194878
OK,32,62,834,32,2014-08-02T07:50:00,7,20861622,194878
OK,50,40,834,50,2014-08-02T07:55:00,11,20862071,194878
OK,51,39,834,51,2014-08-02T08:00:00,10,20862520,194878
OK,31,64,834,31,2014-08-02T08:05:00,9,20862969,194878
OK,34,58,834,34,2014-08-02T08:10:00,4,20863418,194878
OK,36,55,834,36,2014-08-02T08:15:00,11,20863867,194878
OK,33,60,834,33,2014-08-02T08:20:00,12,20864316,194878
OK,33,60,834,33,2014-08-02T08:25:00,12,20864765,194878
OK,35,57,834,35,2014-08-02T08:30:00,14,20865214,194878
OK,36,55,834,36,2014-08-02T08:35:00,9,20865663,194878
OK,30,66,834,30,2014-08-02T08:40:00,9,20866112,194878
OK,30,66,834,30,2014-08-02T08:45:00,13,20866561,194878
OK,39,51,834,39,2014-08-02T08:50:00,12,20867010,194878
OK,40,50,834,40,2014-08-02T08:55:00,14,20867459,194878
OK,36,55,834,36,2014-08-02T09:00:00,16,20867908,194878
OK,32,62,834,32,2014-08-02T09:05:00,16,20868357,194878
OK,30,66,834,30,2014-08-02T09:10:00,12,20868806,194878
OK,35,57,834,35,2014-08-02T09:15:00,11,20869255,194878
OK,39,51,834,39,2014-08-02T09:20:00,9,20869704,194878
OK,39,51,834,39,2014-08-02T09:25:00,9,20870153,194878
OK,40,50,834,40,2014-08-02T09:30:00,12,20870602,194878
OK,44,45,834,44,2014-08-02T09:35:00,15,20871051,194878
OK,43,46,834,43,2014-08-02T09:40:00,16,20871500,194878
OK,39,51,834,39,2014-08-02T09:45:00,18,20871949,194878
OK,40,50,834,40,2014-08-02T09:50:00,18,20872398,194878
OK,36,55,834,36,2014-08-02T09:55:00,19,20872847,194878
OK,33,60,834,33,2014-08-02T10:00:00,17,20873296,194878
OK,35,57,834,35,2014-08-02T10:05:00,12,20873745,194878
OK,44,45,834,44,2014-08-02T10:10:00,17,20874194,194878
OK,44,45,834,44,2014-08-02T10:15:00,15,20874643,194878
OK,36,55,834,36,2014-08-02T10:20:00,7,20875092,194878
OK,31,64,834,31,2014-08-02T10:25:00,14,20875541,194878
OK,29,69,834,29,2014-08-02T10:30:00,12,20875990,194878
OK,46,43,834,46,2014-08-02T10:35:00,7,20876439,194878
OK,207,9,834,207,2014-08-02T10:40:00,10,20876888,194878
OK,244,8,834,244,2014-08-02T10:45:00,18,20877337,194878
OK,237,8,834,237,2014-08-02T10:50:00,25,20877786,194878
OK,169,11,834,169,2014-08-02T10:55:00,20,20878235,194878
OK,192,10,834,192,2014-08-02T11:00:00,11,20878684,194878
OK,165,12,834,165,2014-08-02T11:05:00,18,20879133,194878
OK,138,14,834,138,2014-08-02T11:10:00,34,20879582,194878
OK,59,33,834,59,2014-08-02T11:15:00,25,20880031,194878
OK,46,43,834,46,2014-08-02T11:20:00,15,20880480,194878
OK,46,43,834,46,2014-08-02T11:25:00,19,20880929,194878
OK,43,46,834,43,2014-08-02T11:30:00,16,20881378,194878
OK,43,46,834,43,2014-08-02T11:35:00,14,20881827,194878
OK,40,50,834,40,2014-08-02T11:40:00,13,20882276,194878
OK,40,50,834,40,2014-08-02T11:45:00,17,20882725,194878
OK,33,60,834,33,2014-08-02T11:50:00,13,20883174,194878
OK,32,62,834,32,2014-08-02T11:55:00,8,20883623,194878
OK,43,46,834,43,2014-08-02T12:00:00,6,20884072,194878
OK,36,55,834,36,2014-08-02T12:05:00,15,20884521,194878
OK,36,55,834,36,2014-08-02T12:10:00,17,20884970,194878
OK,41,48,834,41,2014-08-02T12:15:00,15,20885419,194878
OK,40,50,834,40,2014-08-02T12:20:00,18,20885868,194878
OK,32,62,834,32,2014-08-02T12:25:00,19,20886317,194878
OK,32,62,834,32,2014-08-02T12:30:00,18,20886766,194878
OK,35,57,834,35,2014-08-02T12:35:00,10,20887215,194878
OK,31,64,834,31,2014-08-02T12:40:00,9,20887664,194878
OK,32,62,834,32,2014-08-02T12:45:00,12,20888113,194878
OK,36,55,834,36,2014-08-02T12:50:00,15,20888562,194878
OK,36,55,834,36,2014-08-02T12:55:00,16,20889011,194878
OK,35,57,834,35,2014-08-02T13:00:00,14,20889460,194878
OK,34,58,834,34,2014-08-02T13:05:00,16,20889909,194878
OK,34,58,834,34,2014-08-02T13:10:00,9,20890358,194878
OK,31,64,834,31,2014-08-02T13:15:00,7,20890807,194878
OK,41,48,834,41,2014-08-02T13:20:00,13,20891256,194878
OK,38,52,834,38,2014-08-02T13:25:00,12,20891705,194878
OK,42,47,834,42,2014-08-02T13:30:00,10,20892154,194878
OK,46,43,834,46,2014-08-02T13:35:00,11,20892603,194878
OK,38,52,834,38,2014-08-02T13:40:00,15,20893052,194878
OK,38,52,834,38,2014-08-02T13:45:00,11,20893501,194878
OK,33,60,834,33,2014-08-02T13:50:00,18,20893950,194878
OK,32,62,834,32,2014-08-02T13:55:00,21,20894399,194878
OK,33,60,834,33,2014-08-02T14:00:00,14,20894848,194878
OK,34,58,834,34,2014-08-02T14:05:00,12,20895297,194878
OK,32,62,834,32,2014-08-02T14:10:00,10,20895746,194878
OK,33,60,834,33,2014-08-02T14:15:00,4,20896195,194878
OK,32,62,834,32,2014-08-02T14:20:00,14,20896644,194878
OK,32,62,834,32,2014-08-02T14:25:00,18,20897093,194878
OK,38,52,834,38,2014-08-02T14:30:00,14,20897542,194878
OK,40,50,834,40,2014-08-02T14:35:00,8,20897991,194878
OK,40,50,834,40,2014-08-02T14:40:00,12,20898440,194878
OK,40,50,834,40,2014-08-02T14:45:00,9,20898889,194878
OK,35,57,834,35,2014-08-02T14:50:00,6,20899338,194878
OK,35,57,834,35,2014-08-02T14:55:00,10,20899787,194878
OK,31,64,834,31,2014-08-02T15:00:00,9,20900236,194878
OK,30,66,834,30,2014-08-02T15:05:00,6,20900685,194878
OK,31,64,834,31,2014-08-02T15:10:00,6,20901134,194878
OK,32,62,834,32,2014-08-02T15:15:00,8,20901583,194878
OK,31,64,834,31,2014-08-02T15:20:00,7,20902032,194878
OK,31,64,834,31,2014-08-02T15:25:00,9,20902481,194878
OK,33,60,834,33,2014-08-02T15:30:00,14,20902930,194878
OK,41,48,834,41,2014-08-02T15:35:00,23,20903379,194878
OK,36,55,834,36,2014-08-02T15:40:00,19,20903828,194878
OK,30,66,834,30,2014-08-02T15:45:00,13,20904277,194878
OK,34,58,834,34,2014-08-02T15:50:00,9,20904726,194878
OK,35,57,834,35,2014-08-02T15:55:00,10,20905175,194878
OK,33,60,834,33,2014-08-02T16:00:00,11,20905624,194878
OK,38,52,834,38,2014-08-02T16:05:00,5,20906073,194878
OK,36,55,834,36,2014-08-02T16:10:00,10,20906522,194878
OK,41,48,834,41,2014-08-02T16:15:00,14,20906971,194878
OK,41,48,834,41,2014-08-02T16:20:00,10,20907420,194878
OK,31,64,834,31,2014-08-02T16:25:00,6,20907869,194878
OK,31,64,834,31,2014-08-02T16:30:00,6,20908318,194878
OK,32,62,834,32,2014-08-02T16:35:00,6,20908767,194878
OK,29,69,834,29,2014-08-02T16:40:00,6,20909216,194878
OK,43,46,834,43,2014-08-02T16:45:00,5,20909665,194878
OK,29,69,834,29,2014-08-02T16:50:00,5,20910114,194878
OK,34,58,834,34,2014-08-02T16:55:00,4,20910563,194878
OK,29,69,834,29,2014-08-02T17:00:00,6,20911012,194878
OK,30,66,834,30,2014-08-02T17:05:00,5,20911461,194878
OK,42,47,834,42,2014-08-02T17:10:00,7,20911910,194878
OK,35,57,834,35,2014-08-02T17:15:00,9,20912359,194878
OK,31,64,834,31,2014-08-02T17:20:00,5,20912808,194878
OK,31,64,834,31,2014-08-02T17:25:00,7,20913257,194878
OK,30,66,834,30,2014-08-02T17:30:00,5,20913706,194878
OK,31,64,834,31,2014-08-02T17:35:00,3,20914155,194878
OK,30,66,834,30,2014-08-02T17:40:00,5,20914604,194878
OK,29,69,834,29,2014-08-02T17:45:00,4,20915053,194878
OK,33,60,834,33,2014-08-02T17:50:00,5,20915502,194878
OK,31,64,834,31,2014-08-02T17:55:00,10,20915951,194878
OK,30,66,834,30,2014-08-02T18:00:00,7,20916400,194878
OK,30,66,834,30,2014-08-02T18:05:00,3,20916849,194878
OK,29,69,834,29,2014-08-02T18:10:00,8,20917298,194878
OK,30,66,834,30,2014-08-02T18:15:00,11,20917747,194878
OK,30,66,834,30,2014-08-02T18:20:00,6,20918196,194878
OK,29,69,834,29,2014-08-02T18:25:00,9,20918645,194878
OK,29,69,834,29,2014-08-02T18:30:00,8,20919094,194878
OK,31,64,834,31,2014-08-02T18:35:00,5,20919543,194878
OK,29,69,834,29,2014-08-02T18:40:00,11,20919992,194878
OK,31,64,834,31,2014-08-02T18:45:00,11,20920441,194878
OK,29,69,834,29,2014-08-02T18:50:00,9,20920890,194878
OK,26,77,834,26,2014-08-02T18:55:00,3,20921339,194878
OK,40,50,834,40,2014-08-02T19:00:00,2,20921788,194878
OK,31,64,834,31,2014-08-02T19:05:00,4,20922237,194878
OK,30,66,834,30,2014-08-02T19:10:00,8,20922686,194878
OK,29,69,834,29,2014-08-02T19:15:00,6,20923135,194878
OK,30,66,834,30,2014-08-02T19:20:00,9,20923584,194878
OK,31,64,834,31,2014-08-02T19:25:00,7,20924033,194878
OK,30,66,834,30,2014-08-02T19:30:00,1,20924482,194878
OK,29,69,834,29,2014-08-02T19:35:00,7,20924931,194878
OK,31,64,834,31,2014-08-02T19:40:00,8,20925380,194878
OK,32,62,834,32,2014-08-02T19:45:00,5,20925829,194878
OK,31,64,834,31,2014-08-02T19:50:00,4,20926278,194878
OK,28,71,834,28,2014-08-02T19:55:00,9,20926727,194878
OK,27,74,834,27,2014-08-02T20:00:00,8,20927176,194878
OK,42,47,834,42,2014-08-02T20:05:00,1,20927625,194878
OK,28,71,834,28,2014-08-02T20:10:00,4,20928074,194878
OK,29,69,834,29,2014-08-02T20:15:00,4,20928523,194878
OK,34,58,834,34,2014-08-02T20:20:00,3,20928972,194878
OK,34,58,834,34,2014-08-02T20:25:00,3,20929421,194878
OK,33,60,834,33,2014-08-02T20:30:00,2,20929870,194878
OK,26,77,834,26,2014-08-02T20:35:00,3,20930319,194878
OK,32,62,834,32,2014-08-02T20:40:00,3,20930768,194878
OK,34,58,834,34,2014-08-02T20:45:00,2,20931217,194878
OK,31,64,834,31,2014-08-02T20:50:00,5,20931666,194878
OK,30,66,834,30,2014-08-02T20:55:00,6,20932115,194878
OK,27,74,834,27,2014-08-02T21:00:00,5,20932564,194878
OK,25,80,834,25,2014-08-02T21:05:00,2,20933013,194878
OK,25,80,834,25,2014-08-02T21:10:00,3,20933462,194878
OK,34,58,834,34,2014-08-02T21:15:00,4,20933911,194878
OK,45,44,834,45,2014-08-02T21:20:00,2,20934360,194878
OK,36,55,834,36,2014-08-02T21:25:00,1,20934809,194878
OK,27,74,834,27,2014-08-02T21:30:00,1,20935258,194878
OK,41,48,834,41,2014-08-02T21:35:00,3,20935707,194878
OK,33,60,834,33,2014-08-02T21:40:00,4,20936156,194878
OK,26,77,834,26,2014-08-02T21:45:00,1,20936605,194878
OK,26,77,834,26,2014-08-02T21:50:00,0,20937054,194878
OK,37,54,834,37,2014-08-02T21:55:00,1,20937503,194878
OK,37,54,834,37,2014-08-02T22:00:00,0,20937952,194878
OK,37,54,834,37,2014-08-02T22:05:00,0,20938401,194878
OK,24,83,834,24,2014-08-02T22:10:00,1,20938850,194878
OK,24,83,834,24,2014-08-02T22:15:00,3,20939299,194878
OK,31,64,834,31,2014-08-02T22:20:00,1,20939748,194878
OK,26,77,834,26,2014-08-02T22:25:00,3,20940197,194878
OK,26,77,834,26,2014-08-02T22:30:00,3,20940646,194878
OK,29,69,834,29,2014-08-02T22:35:00,0,20941095,194878
OK,29,69,834,29,2014-08-02T22:40:00,0,20941544,194878
OK,26,77,834,26,2014-08-02T22:45:00,1,20941993,194878
OK,26,77,834,26,2014-08-02T22:50:00,1,20942442,194878
OK,31,64,834,31,2014-08-02T22:55:00,1,20942891,194878
OK,29,69,834,29,2014-08-02T23:00:00,2,20943340,194878
OK,27,74,834,27,2014-08-02T23:10:00,0,20943789,194878
OK,28,71,834,28,2014-08-02T23:15:00,1,20944238,194878
OK,28,71,834,28,2014-08-02T23:20:00,1,20944687,194878
OK,36,55,834,36,2014-08-02T23:25:00,1,20945136,194878
OK,36,55,834,36,2014-08-02T23:30:00,0,20945585,194878
OK,28,71,834,28,2014-08-02T23:35:00,1,20946034,194878
OK,31,64,834,31,2014-08-02T23:40:00,2,20946483,194878
OK,34,58,834,34,2014-08-02T23:45:00,0,20946932,194878
OK,34,58,834,34,2014-08-02T23:50:00,0,20947381,194878
OK,30,66,834,30,2014-08-02T23:55:00,2,20947830,194878
OK,26,77,834,26,2014-08-03T00:00:00,1,20948279,194878
OK,34,58,834,34,2014-08-03T00:05:00,1,20948728,194878
OK,32,62,834,32,2014-08-03T00:10:00,1,20949176,194878
OK,44,45,834,44,2014-08-03T00:15:00,1,20949625,194878
OK,30,66,834,30,2014-08-03T00:20:00,2,20950074,194878
OK,26,77,834,26,2014-08-03T00:25:00,2,20950523,194878
OK,19,105,834,19,2014-08-03T00:30:00,0,20950972,194878
OK,29,69,834,29,2014-08-03T00:35:00,0,20951421,194878
OK,24,83,834,24,2014-08-03T00:40:00,3,20951870,194878
OK,37,54,834,37,2014-08-03T00:45:00,2,20952319,194878
OK,20,100,834,20,2014-08-03T00:50:00,1,20952768,194878
OK,15,133,834,15,2014-08-03T00:55:00,1,20953217,194878
OK,15,133,834,15,2014-08-03T01:00:00,0,20953666,194878
OK,15,133,834,15,2014-08-03T01:05:00,0,20954115,194878
OK,30,66,834,30,2014-08-03T01:10:00,1,20954564,194878
OK,30,66,834,30,2014-08-03T01:15:00,0,20955013,194878
OK,44,45,834,44,2014-08-03T01:20:00,3,20955462,194878
OK,42,47,834,42,2014-08-03T01:25:00,2,20955911,194878
OK,29,69,834,29,2014-08-03T01:30:00,3,20956360,194878